Location: G?uch�wki
(50.0667°N, 19.6333°E)
Time: 05:05:30
(UTC+00:00)

Daily predictions for brighter satellites

Satellite Brightness Start Highest point End
(mag) Time Altitude Azimuth Time Altitude Azimuth Time Altitude Azimuth
CZ-3B R/B 4.2 00:57:50 48° ENE 00:57:50 48° ENE 01:10:21 10° E
USA 234 4.5 00:50:20 10° ENE 00:53:54 35° ENE 00:53:54 35° ENE
SL-16 R/B 4.4 01:46:11 15° N 01:46:11 15° N 01:47:46 10° N
Cosmos 1980 Rocket 4.5 01:41:57 11° N 01:45:42 19° NE 01:49:41 10° E
CENTAUR R/B 3.7 01:48:26 32° SE 01:49:24 34° ESE 01:55:30 10° NE
ADEOS II 4.2 01:47:09 10° N 01:48:31 18° N 01:48:31 18° N
ARIANE 5 R/B 4.2 01:53:43 10° NNE 01:55:49 26° NNE 01:55:49 26° NNE
USA 238 DEB 3.7 02:19:35 62° S 02:20:34 72° SE 02:27:29 10° NE
USA 238 3.7 02:19:39 62° S 02:20:40 72° SE 02:27:35 10° NE
Cosmos 2142 Rocket 4.4 02:17:35 10° N 02:23:52 86° E 02:30:10 10° S
NOSS 3-2 (A) 3.3 02:24:30 77° S 02:24:49 81° SE 02:31:29 10° NE
CZ-2C R/B 3.3 02:21:04 10° NNE 02:25:56 47° E 02:27:56 30° SSE
PAYLOAD A 4.5 02:25:15 10° NNE 02:30:16 59° ESE 02:32:12 36° SSE
Lacrosse 4 Rocket 2.8 02:31:40 32° ESE 02:31:50 32° ESE 02:35:28 10° NE
GP-B 4.1 02:33:18 41° NNE 02:33:18 41° NNE 02:36:17 10° N
Cosmos 1302 Rocket 4.2 02:31:42 40° N 02:33:35 71° ENE 02:38:51 10° SSE
Cosmos 1048 Rocket 4.3 02:34:50 56° N 02:34:50 56° N 02:39:15 10° NNE
ISS -0.7 02:34:11 11° SE 02:34:11 11° SE 02:35:02 10° ESE
Cosmos 1025 Rocket 3.6 02:37:27 52° NNE 02:37:27 52° NNE 02:40:55 10° NNE
IDEFIX/ARIANE 42P 3.5 02:32:31 10° N 02:35:46 35° NNW 02:35:46 35° NNW
USA 234 3.5 02:33:26 10° ENE 02:39:48 56° NNW 02:41:14 47° WNW
Cosmos 1674 3.7 02:41:37 45° E 02:41:37 45° E 02:45:09 10° NNE
Meteor 1-16 Rocket 4.0 02:37:09 10° NNW 02:42:31 88° ENE 02:47:50 10° SSE
Cosmos 494 Rocket 3.8 02:42:47 82° WNW 02:42:48 82° WNW 02:48:07 10° NNE
Geosat 4.0 02:38:54 10° SE 02:43:55 79° ENE 02:45:43 41° NNW
Cosmos 2279 Rocket 3.8 02:43:20 10° NNW 02:49:33 73° W 02:55:42 10° S
SL-16 R/B 4.5 02:46:48 10° N 02:50:53 20° NE 02:54:56 10° E
Cosmos 1626 4.3 02:47:57 10° SSE 02:51:04 26° E 02:54:10 10° NNE
Cosmos 1656 3.5 02:49:55 49° NW 02:51:28 75° WSW 02:57:09 10° SSE
ADEOS Rocket 2.6 02:49:02 10° S 02:54:30 71° WSW 03:00:07 10° NNW
Cosmos 2344 3.5 02:56:53 40° WSW 02:59:55 76° NW 03:08:18 10° NE
Lacrosse 5 rocket 3.0 03:00:14 19° SSE 03:01:30 23° SE 03:04:33 10° ENE
COSMOS 2406 3.6 02:59:32 14° S 03:04:22 62° ESE 03:09:58 10° NE
Cosmos 1697 Rocket 2.6 03:03:55 14° NNW 03:08:56 87° ENE 03:14:37 10° SSE
CREW DRAGON DEMO-1 DEB 3.8 03:11:10 45° ENE 03:11:10 45° ENE 03:13:30 10° E
Cosmos 1536 Rocket 3.5 03:11:56 51° SW 03:12:53 68° WNW 03:17:23 10° N
Cosmos 220 Rocket 4.3 03:09:54 12° NNW 03:13:57 68° ENE 03:18:21 10° SSE
Cosmos 1992 Rocket 4.3 03:09:23 10° NNW 03:14:37 66° ENE 03:19:47 10° SE
FENGYUN 3A 3.9 03:18:13 10° NNE 03:23:40 70° ESE 03:29:05 10° S
NOSS 3-2 (C) 3.4 03:21:46 31° WSW 03:24:44 74° NW 03:31:30 10° NE
MSX 4.4 03:20:49 10° N 03:25:56 34° WNW 03:26:51 32° W
CBERS 1 LM4 rocket 4.3 03:22:32 10° NNE 03:27:31 73° WNW 03:32:18 10° SSW
CZ-4B R/B 1.3 03:25:04 10° S 03:28:31 69° WSW 03:30:17 27° NNW
Cosmos 44 Rocket 3.9 03:29:14 36° W 03:30:03 38° WSW 03:34:49 10° S
Cosmos 1980 Rocket 2.4 03:25:06 10° NNW 03:30:44 73° ENE 03:36:20 10° SE
Cosmos 1400 Rocket 3.5 03:27:32 10° N 03:31:28 54° ENE 03:35:18 10° SSE
PSLV R/B 3.9 03:31:12 10° N 03:35:14 41° WNW 03:36:13 35° WSW
ARIANE 5 R/B 4.2 03:34:08 10° NNW 03:36:09 16° NW 03:36:09 16° NW
Cosmos 2251 Rocket 4.5 03:32:38 10° S 03:37:48 50° ESE 03:42:58 10° NNE
CENTAUR R/B 2.6 03:35:39 24° WSW 03:39:35 66° NW 03:46:57 10° NE
SL-19 R/B 4.2 03:38:29 10° NNE 03:41:17 55° ESE 03:44:04 10° S
Intercosmos 24 3.6 03:37:10 10° NNW 03:41:18 66° W 03:44:49 10° S
Cosmos 2360 4.1 03:35:38 10° NNW 03:41:20 70° WSW 03:46:58 10° SSE
SKYMED 2 3.7 03:37:26 10° SSE 03:41:46 77° ENE 03:46:08 10° N
ERS-2 3.0 03:44:47 10° SSW 03:47:31 29° WSW 03:47:31 29° WSW
Cosmos 1461 3.7 03:45:45 10° SSW 03:50:14 60° SE 03:54:54 10° NE
SAR-Lupe-4 3.7 03:50:51 10° S 03:54:19 49° W 03:57:49 10° NNW
ALOS 2.2 03:52:11 10° N 03:56:49 61° WNW 04:01:25 10° SSW
Cosmos 2278 3.6 03:51:20 10° NNW 03:57:00 74° WSW 04:02:37 10° SSE
Cosmos 1092 Rocket 4.0 03:51:29 10° S 03:57:39 87° W 04:03:56 10° N
SL-14 R/B 3.2 03:54:11 10° SSW 03:58:09 67° WNW 04:02:11 10° N
Cosmos 1315 Rocket 4.2 03:56:33 10° N 04:00:29 42° ENE 04:04:25 10° SE
Aureole 3 3.5 03:56:50 10° N 04:00:42 89° WSW 04:05:36 10° S
Cosmos 2322 Rocket 3.6 03:55:49 10° NNW 04:01:07 38° NE 04:06:22 10° ESE
CZ-3 R/B 4.3 03:45:31 10° WSW 04:01:20 24° SSW 04:07:58 10° SSE
CZ-2C R/B 3.3 03:59:40 10° N 04:03:55 28° WNW 04:07:18 14° WSW
Nadezhda 4 Rocket 4.1 03:58:16 10° SSW 04:04:12 51° WNW 04:10:13 10° N
Cosmos 1300 2.8 04:02:03 10° NNW 04:05:45 48° W 04:09:25 10° S
Cosmos 1726 Rocket 3.6 04:01:57 10° NNW 04:06:18 55° W 04:10:40 10° S
ADEOS 3.7 04:01:37 10° N 04:06:43 53° WNW 04:11:46 10° SW
Abrixas rocket 2.7 04:06:51 23° WSW 04:08:07 37° SSW 04:10:47 10° SE
PSLV R/B 3.9 04:04:37 10° S 04:08:48 65° WSW 04:13:01 10° NNW
ISS -3.0 04:07:09 12° SW 04:10:05 49° SSE 04:13:21 10° ENE
Lacrosse 4 Rocket 2.0 04:08:02 18° WSW 04:10:28 34° NW 04:14:14 10° NNE
Cosmos 1833 Rocket 2.7 04:05:56 10° SW 04:11:31 59° NW 04:17:08 10° NNE
Cosmos 1689 Rocket 2.3 04:08:51 10° S 04:11:41 43° W 04:14:30 10° NNW
USA 238 DEB 4.3 04:07:03 16° W 04:12:03 41° NNW 04:18:41 10° NE
USA 238 4.2 04:07:08 16° W 04:12:08 41° NNW 04:18:47 10° NE
Meteor 2-13 Rocket 4.5 04:07:25 10° SSW 04:13:29 62° WNW 04:19:35 10° N
USA 290 2.1 04:10:52 10° SSW 04:14:05 88° WNW 04:17:21 10° NNE
Cosmos 1484 Rocket 3.4 04:11:55 10° N 04:15:28 34° WNW 04:18:56 10° SW
IDEFIX/ARIANE 42P 4.5 04:15:07 10° NW 04:16:02 10° NW 04:16:34 10° NW
NOSS 3-2 (A) 4.3 04:11:54 15° W 04:16:23 36° NNW 04:22:49 10° NE
Meteor 1-24 Rocket 3.7 04:10:50 10° SSW 04:16:25 68° WNW 04:22:17 10° N
Cosmos 1674 4.2 04:16:30 16° W 04:17:16 17° WNW 04:19:52 10° NNW
Cosmos 2228 3.8 04:15:25 10° NNW 04:19:15 31° W 04:23:07 10° SSW
Cosmos 2369 4.3 04:14:44 10° NW 04:19:49 34° WSW 04:24:51 10° S
Meteor 2-10 Rocket 3.5 04:15:45 10° N 04:20:48 82° ENE 04:25:51 10° SSE
Cosmos 1606 Rocket 4.3 04:17:14 10° NNW 04:21:13 32° W 04:25:12 10° SSW
Envisat 4.4 04:17:00 10° NNE 04:21:51 42° E 04:26:40 10° S
USA 234 3.8 04:16:02 10° ENE 04:22:17 50° N 04:28:32 10° WNW
CZ-4B R/B 2.8 04:18:32 10° N 04:22:29 68° WNW 04:26:36 10° SSW
H-2A R/B 3.3 04:21:48 10° NNE 04:25:35 63° E 04:29:23 10° S
ATLAS 3B R/B 2.6 04:19:00 10° SW 04:25:35 86° NW 04:32:20 10° NE
Cosmos 1626 3.1 04:23:04 10° SW 04:26:15 26° WNW 04:29:26 10° NNW
METEOR-M 4.4 04:21:40 10° N 04:26:48 47° WNW 04:31:52 10° SW
COSMO-SKYMED 1 3.1 04:25:56 10° SSW 04:29:57 37° W 04:34:00 10° NNW
Cosmos 2082 Rocket 2.2 04:24:24 10° SW 04:30:00 71° WNW 04:35:39 10° NNE
Meteor 2-1 Rocket 4.3 04:26:23 10° NNW 04:32:04 86° ENE 04:37:50 10° SSE
SL-16 R/B 2.5 04:30:19 10° NNW 04:36:02 72° ENE 04:41:41 10° SE
Meteor 1-31 Rocket 3.8 04:36:03 10° N 04:39:25 27° WNW 04:42:44 10° WSW
Meteor 2-5 Rocket 4.3 04:34:45 10° SW 04:40:00 37° WNW 04:45:26 10° N
Lacrosse 5 rocket 1.1 04:36:38 10° WSW 04:40:18 67° NNW 04:44:10 10° NE
ADEOS Rocket 4.4 04:40:03 10° W 04:41:16 11° W 04:42:28 10° WNW
Cosmos 2333 Rocket 4.2 04:37:05 10° NNW 04:41:40 24° NE 04:46:11 10° E
ATLAS CENTAUR R/B 4.2 04:39:22 10° SSE 04:42:18 20° ESE 04:45:09 10° ENE
Meteor PRIRODA 4.0 04:41:30 10° N 04:44:57 40° WNW 04:48:24 10° SW
NOAA 6 4.5 04:40:14 10° NNE 04:45:25 70° ESE 04:50:33 10° S
CREW DRAGON DEMO-1 DEB 2.9 04:43:06 10° WNW 04:46:06 63° SSW 04:49:04 10° ESE
Cosmos 1553 Rocket 4.0 04:40:27 10° NNW 04:46:33 65° W 04:52:32 10° S
Okean 1-7 Rocket 3.9 04:44:14 10° SSW 04:48:38 49° WNW 04:53:03 10° N
COSMOS 2406 4.1 04:44:08 10° WSW 04:49:05 30° NW 04:54:04 10° NNE
Cosmos 2058 Rocket 3.8 04:47:07 10° NNW 04:51:07 32° W 04:55:05 10° SSW
